Regional Weather Roundup
Issued by NWS

Home | Current Version | Previous Version | Text Only | Print | Product List | Glossary Off
Versions: 1 2 3 4 5 6 7 8 9 10 11 12 13 14 15 16 17 18 19 20 21 22 23 24 25 26 27 28 29 30 31 32 33 34 35 36 37 38 39 40 41 42 43 44 45 46 47 48 49 50

687
ASUS43 KLOT 211904
RWRIL

ILLINOIS REGIONAL WEATHER ROUNDUP
NATIONAL WEATHER SERVICE CHICAGO/ROMEOVILLE IL
200 PM CDT FRI JUL 21 2017

NOTE: "FAIR" INDICATES FEW OR NO CLOUDS BELOW 12,000 FEET WITH NO
SIGNIFICANT WEATHER AND/OR OBSTRUCTIONS TO VISIBILITY.

* THESE STATIONS ARE NOT UNDER NWS QUALITY CONTROL. THEY ALSO MAY NOT
  REPORT WEATHER SUCH AS PRECIPITATION OR FOG.

ILZ001-002-007-009-015-016-024-212000-
NORTHWEST ILLINOIS

CITY           SKY/WX    TMP DP  RH WIND       PRES   REMARKS
MOLINE         SUNNY     90  78  68 SE14      29.90F HX 104
STERLING*      PTSUNNY   87  76  69 SE5       29.94F HX  97
SAVANNA*       CLOUDY    85  74  69 NW5       29.95R HX  92
$$

ILZ003-004-008-010-011-017-018-212000-
NORTH CENTRAL ILLINOIS

CITY           SKY/WX    TMP DP  RH WIND       PRES   REMARKS
ROCKFORD       CLOUDY    85  74  69 S9        29.96F HX  92
FREEPORT*      CLOUDY    82  74  77 SE5       29.97F HX  87
ROCHELLE*      CLOUDY    83  76  79 SE3       29.96F HX  90
DE KALB*       CLOUDY    82  75  79 SE8       29.99F HX  89
PERU*          MOSUNNY   88  73  62 S10       29.95F HX  95
$$

ILZ005-006-012>014-019>023-212000-
NORTHEAST ILLINOIS

CITY           SKY/WX    TMP DP  RH WIND       PRES   REMARKS
CHICAGO-OHARE  PTSUNNY   87  71  58 S8        29.96S HX  93
CHICAGO-MIDWAY PTSUNNY   88  71  57 VRB7      29.96F HX  94
AURORA         PTSUNNY   85  75  72 S7        29.97F HX  93
LANSING*       MOSUNNY   85  66  52 SE8       29.97F HX  87
JOLIET*        PTSUNNY   87  75  68 SE7       29.97F HX  96
WAUKEGAN       CLOUDY    82  67  60 SE7       29.98R HX  84
DUPAGE AIRPORT MOSUNNY   86  74  67 S8        29.97S HX  94
WHEELING       MOSUNNY   85  71  63 E6        29.97F HX  90
MORRIS*        MOSUNNY   84  76  78 SE8       29.96F HX  93
ROMEOVILLE*    PTSUNNY   85  69  59 S8        29.97F HX  89
NORTHERLY ISL    N/A     79  71  76 CALM        N/A  HX  82
$$

LMZ740>746-212000-
SOUTHERN LAKE MICHIGAN

STATION/POSITION SKY/WX   TEMP    WIND        PRES    VSBY  WAVE
                          AIR SEA DIR/SP/G                  HT/PER
                          (F)     (DEG/KT/KT) (MB)    (MI)  (FT/S)
SOUTHERN BUOY              73 73  170/  6/  6 1015.6          0
WILMETTE HARBOR            74 73  110/  6/  8   N/A           1
HARRISON CRIB              79     100/ 10/ 11   N/A
BURNHAM HARBOR             80                   N/A
CALUMET HARBOR             77      50/  7/  7 1014.7F
BURNS HARBOR               77     360/  5/  6 1015.2F
MICHIGAN CITY              81     350/  1/  2   N/A
MICHIGAN CITY 6N           77 78   80/  2/  4   N/A           0
ST. JOSEPH                 76 77  360/  6/  6 1014.6F         0
$$

ILZ025>027-034>036-040-047-049-050-058-095>099-212000-
WEST-CENTRAL ILLINOIS

CITY           SKY/WX    TMP DP  RH WIND       PRES   REMARKS
QUINCY         SUNNY     97  73  45 SW12      29.93F HX 107
GALESBURG*     MOSUNNY   90  78  68 SE5       29.94F HX 105
MACOMB*        MOSUNNY   92  76  60 S9        29.95F HX 104
JACKSONVILLE*  MOSUNNY   92  75  56 SW6       29.95F HX 103
PITTSFIELD*    MOSUNNY   95  73  49 SW9       29.95F HX 105
$$

ILZ028>032-037-038-041>044-048-051>054-059>061-212000-
CENTRAL ILLINOIS

CITY           SKY/WX    TMP DP  RH WIND       PRES   REMARKS
PONTIAC        MOSUNNY   89  79  72 S6        29.97F HX 104
BLOOMINGTON    MOSUNNY   92  77  61 S10       29.97F HX 105
DECATUR        MOSUNNY   93  77  59 W8        29.96F HX 107
PEORIA         SUNNY     92  78  63 S8        29.94F HX 107
LACON*         SUNNY     88  77  68 S8        29.93F HX 100
LINCOLN*       MOSUNNY   92  79  66 SE5       29.95F HX 109
SPRINGFIELD    MOSUNNY   95  79  59 W6        29.96F HX 112
TAYLORVILLE    MOSUNNY   93  78  61 W5        29.96F HX 107
$$

ILZ033-039-045-046-055>057-062-063-212000-
EAST-CENTRAL ILLINOIS

CITY           SKY/WX    TMP DP  RH WIND       PRES   REMARKS
CHAMPAIGN      MOSUNNY   90  79  70 S6        29.98F HX 106
RANTOUL*       SUNNY     91  79  67 S3        29.98F HX 106
MATTOON        SUNNY     95  77  55 SW7       29.96F HX 109
PARIS*         MOSUNNY   92  80  68 CALM      29.99F THUNDER HX 109
$$

ILZ079-100>102-212000-
SOUTHWEST ILLINOIS

CITY           SKY/WX    TMP DP  RH WIND       PRES   REMARKS
ALTON          MOSUNNY   95  75  52 SW6       29.96F HX 107
BELLEVILLE     SUNNY     97  75  49 SW3       29.97F HX 108
CAHOKIA*       PTSUNNY   99  70  38 SW7       29.95F HX 106
SPARTA*        MOSUNNY   96  72  45 CALM      29.98F HX 104
$$

ILZ064>066-069>071-074>076-080>082-084>086-088>090-092>094-212000-
SOUTH-CENTRAL ILLINOIS

CITY           SKY/WX    TMP DP  RH WIND       PRES   REMARKS
CARBONDALE     SUNNY     94  77  57 W6        29.98F HX 108
CAIRO*         MOSUNNY   95  78  57 SW6       29.99F HX 110
EFFINGHAM*     SUNNY     98  74  45 W6        29.98F HX 109
MARION         MOSUNNY   95  77  55 W7        29.99F HX 109
MT. VERNON     SUNNY     97  79  56 SW7       29.97F HX 115
CENTRALIA*     PTSUNNY   99  75  46 S5        29.96F HX 112
SALEM*         MOSUNNY   97  73  46 W7        29.96F HX 107
METROPOLIS*    SUNNY     95  77  56 SW5       29.99F HX 110
$$

ILZ067-068-072-073-078-083-087-091-212000-
SOUTHEAST ILLINOIS

CITY           SKY/WX    TMP DP  RH WIND       PRES   REMARKS
LAWRENCEVILLE  SUNNY     93  78  61 S8        29.98F HX 108
FLORA*         SUNNY     96  77  53 S6        29.97F HX 111
FAIRFIELD*     SUNNY     94  78  58 S5        29.97S HX 109
HARRISBURG*    SUNNY     95  80  61 S7        29.98F HX 113
ROBINSON*      SUNNY     92  78  63 S3        29.98F HX 106
CARMI*         SUNNY     92  81  70 S7        29.97F HX 113
$$

ABBREVIATIONS USED IN REMARKS
   TC - TEMPERATURE IN CELSIUS
  WCI - WIND CHILL INDEX
   HX - HEAT INDEX
  VSB - VISIBILITY
$$





USA.gov is the U.S. government's official web portal to all federal, state and local government web resources and services.